DIRECTV 12

Last updated on Sun Apr 05 2026 00:02:49 GMT+0000 (Coordinated Universal Time)

1 36131U 09075A 26094.01326582 -.00000105 00000+0 00000+0 0 9998 2 36131 0.0124 329.7374 0000464 71.5214 53.1228 1.00272211 45817
UTC large
Height (km)
Speed (km/s)
/
Latitude / Longitude
Inclination (degrees)
Orbital Period (minutes)
Azimuth
Elevation
Range (km)
Doppler Factor

Next 0 passes for location: London (51.5072 / 0.1276)

Sorry there are no passes over London.